TimeEDT,TemperatureF,Dew PointF,Humidity,Sea Level PressureIn,VisibilityMPH,Wind Direction,Wind SpeedMPH,Gust SpeedMPH,PrecipitationIn,Events,Conditions,WindDirDegrees,DateUTC
12:15 AM,77.0,71.6,83,29.92,5.0,SSW,4.6,-,N/A,,Haze,200,2013-08-29 04:15:00
12:35 AM,77.0,71.6,83,29.92,5.0,SSW,3.5,-,N/A,,Haze,210,2013-08-29 04:35:00
12:55 AM,77.0,71.6,83,29.92,5.0,SSW,3.5,-,N/A,,Haze,200,2013-08-29 04:55:00
1:15 AM,77.0,71.6,83,29.92,5.0,SSW,3.5,-,N/A,,Haze,200,2013-08-29 05:15:00
1:35 AM,77.0,71.6,83,29.91,5.0,SSW,4.6,-,N/A,,Haze,200,2013-08-29 05:35:00
1:55 AM,77.0,71.6,83,29.90,5.0,SSW,4.6,-,N/A,,Haze,200,2013-08-29 05:55:00
2:15 AM,77.0,69.8,78,29.90,5.0,SSW,4.6,-,N/A,,Haze,200,2013-08-29 06:15:00
2:35 AM,75.2,69.8,83,29.90,5.0,SW,3.5,-,N/A,,Haze,220,2013-08-29 06:35:00
2:55 AM,75.2,69.8,83,29.91,7.0,Calm,Calm,-,N/A,,Clear,0,2013-08-29 06:55:00
3:15 AM,75.2,69.8,83,29.90,7.0,SSW,4.6,-,N/A,,Clear,210,2013-08-29 07:15:00
3:35 AM,73.4,69.8,88,29.90,5.0,SSW,3.5,-,N/A,,Haze,210,2013-08-29 07:35:00
3:55 AM,73.4,69.8,88,29.90,7.0,Calm,Calm,-,N/A,,Clear,0,2013-08-29 07:55:00
4:15 AM,75.2,69.8,83,29.90,5.0,South,3.5,-,N/A,,Haze,180,2013-08-29 08:15:00
4:35 AM,73.4,69.8,88,29.90,5.0,SSW,3.5,-,N/A,,Haze,200,2013-08-29 08:35:00
4:55 AM,73.4,68.0,83,29.89,5.0,SSW,3.5,-,N/A,,Haze,200,2013-08-29 08:55:00
5:15 AM,73.4,68.0,83,29.90,5.0,SSW,3.5,-,N/A,,Haze,200,2013-08-29 09:15:00
5:35 AM,73.4,68.0,83,29.90,5.0,SSW,3.5,-,N/A,,Haze,210,2013-08-29 09:35:00
5:55 AM,73.4,66.2,78,29.90,7.0,SSW,3.5,-,N/A,,Mostly Cloudy,200,2013-08-29 09:55:00
6:15 AM,73.4,66.2,78,29.90,7.0,Calm,Calm,-,N/A,,Overcast,0,2013-08-29 10:15:00
6:35 AM,73.4,66.2,78,29.90,7.0,Calm,Calm,-,N/A,,Mostly Cloudy,0,2013-08-29 10:35:00
6:55 AM,73.4,66.2,78,29.91,7.0,SW,3.5,-,N/A,,Mostly Cloudy,220,2013-08-29 10:55:00
7:15 AM,73.4,66.2,78,29.91,5.0,SSW,5.8,-,N/A,,Haze,210,2013-08-29 11:15:00
7:35 AM,73.4,68.0,83,29.91,3.0,SSW,3.5,-,N/A,Rain,Light Rain,210,2013-08-29 11:35:00
7:55 AM,73.4,68.0,83,29.92,3.0,SW,3.5,-,N/A,Rain,Light Rain,220,2013-08-29 11:55:00
8:15 AM,73.4,68.0,83,29.92,4.0,Calm,Calm,-,N/A,,Haze,0,2013-08-29 12:15:00
8:35 AM,73.4,68.0,83,29.92,3.0,Calm,Calm,-,0.01,Rain,Light Rain,0,2013-08-29 12:35:00
8:55 AM,75.2,68.0,78,29.93,4.0,SSW,3.5,-,0.01,,Haze,200,2013-08-29 12:55:00
9:15 AM,75.2,69.8,83,29.93,4.0,Calm,Calm,-,N/A,,Haze,0,2013-08-29 13:15:00
9:35 AM,77.0,69.8,78,29.93,4.0,Calm,Calm,-,N/A,,Haze,0,2013-08-29 13:35:00
9:55 AM,78.8,69.8,74,29.93,4.0,Calm,Calm,-,N/A,,Haze,0,2013-08-29 13:55:00
10:15 AM,80.6,69.8,70,29.93,5.0,West,4.6,-,N/A,,Haze,260,2013-08-29 14:15:00
10:35 AM,80.6,71.6,74,29.93,7.0,SW,3.5,-,N/A,,Mostly Cloudy,230,2013-08-29 14:35:00
10:55 AM,82.4,69.8,66,29.93,7.0,SW,4.6,-,N/A,,Scattered Clouds,230,2013-08-29 14:55:00
11:15 AM,86.0,71.6,62,29.92,7.0,WNW,4.6,-,N/A,,Scattered Clouds,290,2013-08-29 15:15:00
11:35 AM,87.8,71.6,58,29.92,7.0,WNW,3.5,-,N/A,,Clear,300,2013-08-29 15:35:00
11:55 AM,87.8,73.4,62,29.92,10.0,NW,6.9,-,N/A,,Scattered Clouds,320,2013-08-29 15:55:00
12:15 PM,89.6,71.6,55,29.91,10.0,NW,9.2,-,N/A,,Mostly Cloudy,320,2013-08-29 16:15:00
12:35 PM,89.6,71.6,55,29.90,10.0,NW,6.9,-,N/A,,Mostly Cloudy,320,2013-08-29 16:35:00
1:15 PM,93.2,73.4,52,29.90,10.0,North,3.5,-,N/A,,Scattered Clouds,10,2013-08-29 17:15:00
1:55 PM,91.4,71.6,52,29.90,10.0,NNW,6.9,-,N/A,,Overcast,340,2013-08-29 17:55:00
2:15 PM,93.2,71.6,49,29.89,10.0,Calm,Calm,-,N/A,,Scattered Clouds,0,2013-08-29 18:15:00
2:35 PM,95.0,71.6,47,29.89,10.0,NNE,4.6,-,N/A,,Mostly Cloudy,20,2013-08-29 18:35:00
2:55 PM,95.0,73.4,49,29.88,10.0,NW,5.8,-,N/A,,Overcast,310,2013-08-29 18:55:00
3:15 PM,95.0,71.6,47,29.88,10.0,NNW,5.8,-,N/A,,Mostly Cloudy,330,2013-08-29 19:15:00
3:35 PM,89.6,73.4,59,29.88,3.0,Calm,Calm,-,0.10,Rain,Heavy Rain,0,2013-08-29 19:35:00
3:55 PM,89.6,77.0,66,29.88,10.0,North,4.6,-,0.10,,Mostly Cloudy,10,2013-08-29 19:55:00
4:15 PM,89.6,75.2,62,29.87,10.0,NNW,9.2,-,N/A,,Scattered Clouds,330,2013-08-29 20:15:00
4:35 PM,89.6,75.2,62,29.88,10.0,East,6.9,-,N/A,,Scattered Clouds,80,2013-08-29 20:35:00
4:55 PM,89.6,73.4,59,29.88,10.0,East,8.1,-,N/A,,Mostly Cloudy,80,2013-08-29 20:55:00
5:15 PM,87.8,75.2,66,29.88,10.0,NNE,10.4,-,N/A,,Mostly Cloudy,30,2013-08-29 21:15:00
5:35 PM,87.8,73.4,62,29.89,10.0,NE,10.4,-,N/A,Thunderstorm,Mostly Cloudy,40,2013-08-29 21:35:00
5:55 PM,89.6,73.4,59,29.89,10.0,NE,10.4,-,N/A,,Scattered Clouds,50,2013-08-29 21:55:00
6:15 PM,89.6,73.4,59,29.90,10.0,ENE,9.2,-,N/A,,Clear,60,2013-08-29 22:15:00
6:35 PM,87.8,71.6,58,29.89,10.0,ENE,9.2,-,N/A,,Clear,60,2013-08-29 22:35:00
6:55 PM,87.8,71.6,58,29.90,10.0,NE,6.9,-,N/A,,Clear,50,2013-08-29 22:55:00
7:15 PM,86.0,71.6,62,29.89,10.0,NE,5.8,-,N/A,,Clear,50,2013-08-29 23:15:00
7:35 PM,82.4,73.4,74,29.90,10.0,Calm,Calm,-,N/A,,Clear,0,2013-08-29 23:35:00
7:55 PM,80.6,75.2,84,29.91,7.0,NNE,4.6,-,N/A,,Clear,30,2013-08-29 23:55:00
8:15 PM,80.6,73.4,79,29.93,3.0,SSE,3.5,-,N/A,,Haze,150,2013-08-30 00:15:00
8:35 PM,80.6,77.0,89,29.93,7.0,Calm,Calm,-,N/A,,Clear,0,2013-08-30 00:35:00
8:55 PM,78.8,77.0,94,29.94,7.0,Calm,Calm,-,N/A,,Clear,0,2013-08-30 00:55:00
9:15 PM,78.8,73.4,83,29.95,7.0,Calm,Calm,-,N/A,,Clear,0,2013-08-30 01:15:00
9:35 PM,78.8,75.2,89,29.96,5.0,Calm,Calm,-,N/A,,Mostly Cloudy,0,2013-08-30 01:35:00
9:55 PM,78.8,75.2,89,29.96,5.0,Calm,Calm,-,N/A,,Overcast,0,2013-08-30 01:55:00
10:15 PM,78.8,71.6,78,29.97,7.0,East,5.8,-,N/A,,Mostly Cloudy,80,2013-08-30 02:15:00
10:35 PM,80.6,69.8,70,29.97,7.0,ENE,9.2,-,N/A,,Scattered Clouds,70,2013-08-30 02:35:00
10:55 PM,80.6,69.8,70,29.97,7.0,ENE,9.2,-,N/A,,Scattered Clouds,60,2013-08-30 02:55:00
11:15 PM,78.8,69.8,74,29.97,7.0,ENE,8.1,-,N/A,,Scattered Clouds,70,2013-08-30 03:15:00
11:35 PM,78.8,69.8,74,29.97,10.0,ENE,6.9,-,N/A,,Clear,70,2013-08-30 03:35:00
11:55 PM,78.8,69.8,74,29.97,10.0,East,10.4,-,N/A,,Clear,80,2013-08-30 03:55:00